�������l�o���
Date,Time,MP-1(��Sv/h),MP-2(��Sv/h),MP-3(��Sv/h),MP-4(��Sv/h),MP-5(��Sv/h),MP-6(��Sv/h),MP-7(��Sv/h),MP-8(��Sv/h),����,����(m/s),���J
2019/04/13,00:00,0.749,1.101,0.758,1.395,1.014,0.431,0.766,0.729,�k��,7.2,��
2019/04/13,00:10,0.748,1.098,0.757,1.396,1.014,0.431,0.766,0.728,�k��,7.6,��
2019/04/13,00:20,0.750,1.099,0.758,1.396,1.012,0.431,0.764,0.727,�k��,7.6,��
2019/04/13,00:30,0.751,1.100,0.759,1.399,1.013,0.430,0.764,0.727,�k��,7.5,��
2019/04/13,00:40,0.749,1.100,0.756,1.395,1.015,0.431,0.766,0.729,�k��,7.6,��
2019/04/13,00:50,0.748,1.100,0.757,1.396,1.011,0.430,0.765,0.729,�k��,7.9,��
2019/04/13,01:00,0.749,1.101,0.758,1.395,1.017,0.429,0.767,0.728,�k��,7.9,��
2019/04/13,01:10,0.748,1.098,0.759,1.395,1.012,0.430,0.767,0.727,�k��,7.7,��
2019/04/13,01:20,0.751,1.100,0.758,1.395,1.012,0.430,0.766,0.726,�k��,8.1,��
2019/04/13,01:30,0.750,1.100,0.757,1.394,1.012,0.432,0.767,0.728,�k��,7.3,��
2019/04/13,01:40,0.751,1.099,0.757,1.396,1.013,0.430,0.766,0.726,�k��,7.0,��
2019/04/13,01:50,0.748,1.099,0.757,1.395,1.014,0.430,0.764,0.727,�k��,6.6,��
2019/04/13,02:00,0.749,1.099,0.757,1.398,1.012,0.430,0.766,0.727,�k��,6.6,��
2019/04/13,02:10,0.748,1.100,0.758,1.395,1.011,0.430,0.767,0.725,�k��,6.6,��
2019/04/13,02:20,0.750,1.101,0.756,1.398,1.011,0.430,0.766,0.728,�k��,6.0,��
2019/04/13,02:30,0.750,1.099,0.758,1.396,1.012,0.430,0.768,0.725,�k��,6.5,��
2019/04/13,02:40,0.749,1.100,0.755,1.396,1.012,0.432,0.766,0.727,�k��,5.7,��
2019/04/13,02:50,0.750,1.099,0.756,1.395,1.013,0.430,0.764,0.727,�k��,6.0,��
2019/04/13,03:00,0.750,1.100,0.756,1.399,1.015,0.431,0.766,0.727,���k��,5.6,��
2019/04/13,03:10,0.748,1.100,0.756,1.395,1.012,0.432,0.766,0.727,���k��,5.2,��
2019/04/13,03:20,0.748,1.101,0.757,1.393,1.013,0.431,0.766,0.728,���k��,5.9,��
2019/04/13,03:30,0.750,1.100,0.759,1.398,1.014,0.430,0.766,0.727,���k��,6.4,��
2019/04/13,03:40,0.749,1.101,0.756,1.398,1.013,0.430,0.767,0.728,�k��,5.9,��
2019/04/13,03:50,0.748,1.101,0.758,1.396,1.015,0.431,0.765,0.727,���k��,5.3,��
2019/04/13,04:00,0.749,1.099,0.756,1.396,1.015,0.431,0.765,0.729,���k��,4.8,��
2019/04/13,04:10,0.747,1.100,0.757,1.394,1.014,0.432,0.766,0.728,���k��,5.4,��
2019/04/13,04:20,0.749,1.102,0.757,1.398,1.010,0.429,0.766,0.727,���k��,5.4,��
2019/04/13,04:30,0.747,1.099,0.756,1.397,1.012,0.430,0.765,0.727,���k��,5.5,��
2019/04/13,04:40,0.749,1.097,0.754,1.395,1.011,0.432,0.766,0.727,���k��,6.3,��
2019/04/13,04:50,0.748,1.099,0.756,1.396,1.015,0.431,0.764,0.727,���k��,6.6,��
2019/04/13,05:00,0.750,1.099,0.755,1.397,1.013,0.431,0.763,0.728,���k��,7.3,��
2019/04/13,05:10,0.750,1.098,0.756,1.397,1.012,0.430,0.765,0.727,�k��,6.3,��
2019/04/13,05:20,0.752,1.099,0.755,1.399,1.014,0.429,0.766,0.726,�k��,6.8,��
2019/04/13,05:30,0.749,1.098,0.758,1.395,1.011,0.429,0.764,0.727,�k��,5.9,��
2019/04/13,05:40,0.748,1.099,0.758,1.396,1.012,0.432,0.765,0.725,�k��,6.8,��
2019/04/13,05:50,0.749,1.100,0.756,1.396,1.013,0.430,0.765,0.727,���k��,5.9,��
2019/04/13,06:00,0.748,1.100,0.758,1.397,1.012,0.430,0.766,0.728,�k��,6.1,��
2019/04/13,06:10,0.747,1.100,0.757,1.398,1.013,0.431,0.765,0.728,�k��,5.5,��
2019/04/13,06:20,0.751,1.102,0.756,1.397,1.012,0.428,0.766,0.728,���k��,5.2,��
2019/04/13,06:30,0.749,1.102,0.757,1.396,1.013,0.430,0.765,0.727,�k��,4.8,��
2019/04/13,06:40,0.751,1.101,0.756,1.396,1.012,0.430,0.765,0.727,���k��,4.9,��
2019/04/13,06:50,0.751,1.101,0.757,1.397,1.012,0.431,0.764,0.728,���k��,5.4,��
2019/04/13,07:00,0.752,1.104,0.757,1.396,1.014,0.432,0.766,0.728,���k��,5.9,��
2019/04/13,07:10,0.751,1.100,0.757,1.398,1.013,0.431,0.766,0.729,���k��,4.6,��
2019/04/13,07:20,0.750,1.102,0.757,1.400,1.014,0.431,0.769,0.727,�k��,4.2,��
2019/04/13,07:30,0.751,1.104,0.757,1.400,1.013,0.432,0.768,0.728,���k��,4.0,��
2019/04/13,07:40,0.751,1.102,0.758,1.398,1.015,0.431,0.767,0.727,���k��,3.1,��
2019/04/13,07:50,0.750,1.102,0.759,1.402,1.014,0.429,0.766,0.727,�k��,2.9,��
2019/04/13,08:00,0.751,1.098,0.760,1.400,1.017,0.430,0.768,0.729,�k��,2.5,��
2019/04/13,08:10,0.751,1.100,0.759,1.400,1.016,0.427,0.769,0.728,�k�k��,1.5,��
2019/04/13,08:20,0.754,1.101,0.759,1.401,1.017,0.430,0.766,0.729,�k,1.7,��
2019/04/13,08:30,0.752,1.103,0.759,1.400,1.016,0.429,0.767,0.729,�k�k��,2.5,��
2019/04/13,08:40,0.752,1.101,0.761,1.400,1.016,0.431,0.767,0.730,�k��,2.9,��
2019/04/13,08:50,0.755,1.101,0.760,1.403,1.017,0.429,0.766,0.727,�k��,3.2,��
2019/04/13,09:00,0.754,1.098,0.760,1.401,1.017,0.431,0.765,0.728,���k��,3.7,��
2019/04/13,09:10,0.753,1.102,0.758,1.401,1.018,0.429,0.765,0.728,�k��,3.4,��
2019/04/13,09:20,0.752,1.100,0.758,1.401,1.018,0.429,0.766,0.725,���k��,4.4,��
2019/04/13,09:30,0.753,1.101,0.759,1.400,1.020,0.431,0.765,0.725,���k��,4.3,��
2019/04/13,09:40,0.752,1.099,0.760,1.401,1.018,0.429,0.766,0.725,���k��,4.0,��
2019/04/13,09:50,0.754,1.100,0.760,1.401,1.017,0.430,0.765,0.726,���k��,3.2,��
2019/04/13,10:00,0.754,1.102,0.759,1.402,1.018,0.429,0.765,0.725,��,3.6,��
2019/04/13,10:10,0.755,1.101,0.761,1.402,1.017,0.431,0.765,0.725,���쓌,2.5,��
2019/04/13,10:20,0.754,1.103,0.761,1.403,1.018,0.430,0.766,0.726,�쓌,3.4,��
2019/04/13,10:30,0.753,1.103,0.761,1.402,1.017,0.430,0.767,0.725,�쓌,3.5,��
2019/04/13,10:40,0.755,1.104,0.759,1.401,1.018,0.430,0.765,0.726,�쓌,5.1,��
2019/04/13,10:50,0.755,1.102,0.760,1.404,1.020,0.431,0.764,0.727,��쓌,4.4,��
2019/04/13,11:00,0.754,1.104,0.762,1.402,1.018,0.430,0.765,0.725,�쓌,4.5,��
2019/04/13,11:10,0.755,1.102,0.760,1.402,1.019,0.430,0.767,0.727,�쓌,4.1,��
2019/04/13,11:20,0.756,1.102,0.760,1.402,1.019,0.431,0.767,0.725,�쓌,4.7,��
2019/04/13,11:30,0.757,1.104,0.761,1.403,1.021,0.432,0.766,0.727,�쓌,4.4,��
2019/04/13,11:40,0.755,1.105,0.761,1.405,1.019,0.431,0.765,0.726,��쓌,5.3,��
2019/04/13,11:50,0.754,1.107,0.760,1.404,1.022,0.432,0.766,0.727,��쓌,4.9,��
2019/04/13,12:00,0.755,1.106,0.761,1.406,1.021,0.432,0.767,0.728,��쓌,5.9,��
2019/04/13,12:10,0.754,1.107,0.761,1.404,1.021,0.432,0.766,0.726,�쓌,6.0,��
2019/04/13,12:20,0.755,1.109,0.762,1.403,1.022,0.430,0.768,0.727,��쓌,6.0,��
2019/04/13,12:30,0.755,1.108,0.761,1.403,1.022,0.433,0.768,0.727,�쓌,5.5,��
2019/04/13,12:40,0.755,1.110,0.760,1.404,1.022,0.431,0.767,0.726,��쓌,6.6,��
2019/04/13,12:50,0.755,1.111,0.760,1.402,1.022,0.432,0.770,0.726,��쓌,6.8,��
2019/04/13,13:00,0.756,1.109,0.760,1.406,1.023,0.432,0.766,0.728,��쓌,8.2,��
2019/04/13,13:10,0.755,1.109,0.758,1.406,1.025,0.431,0.770,0.725,��쓌,7.1,��
2019/04/13,13:20,0.756,1.108,0.761,1.406,1.021,0.432,0.768,0.727,��쓌,5.8,��
2019/04/13,13:30,0.755,1.108,0.759,1.406,1.024,0.433,0.771,0.725,��쓌,7.0,��
2019/04/13,13:40,0.754,1.107,0.761,1.407,1.027,0.434,0.768,0.726,��쓌,6.8,��
2019/04/13,13:50,0.754,1.108,0.762,1.405,1.023,0.432,0.767,0.729,��쓌,8.5,��
2019/04/13,14:00,0.757,1.107,0.761,1.403,1.026,0.434,0.767,0.726,��쓌,8.8,��
2019/04/13,14:10,0.755,1.111,0.762,1.406,1.027,0.432,0.768,0.727,��쓌,8.5,��
2019/04/13,14:20,0.758,1.111,0.763,1.406,1.025,0.432,0.769,0.726,��쓌,7.0,��
2019/04/13,14:30,0.756,1.109,0.762,1.408,1.026,0.433,0.767,0.726,��쓌,8.0,��
2019/04/13,14:40,0.757,1.110,0.762,1.407,1.025,0.434,0.767,0.728,��쓌,7.6,��
2019/04/13,14:50,0.757,1.110,0.761,1.408,1.026,0.436,0.769,0.726,��쓌,8.5,��
2019/04/13,15:00,0.757,1.114,0.762,1.407,1.025,0.435,0.767,0.727,��쓌,8.5,��
2019/04/13,15:10,0.758,1.111,0.763,1.410,1.027,0.435,0.767,0.727,��쓌,8.1,��
2019/04/13,15:20,0.759,1.114,0.764,1.407,1.025,0.435,0.768,0.728,��쓌,8.3,��
2019/04/13,15:30,0.757,1.114,0.765,1.406,1.026,0.436,0.767,0.728,��쓌,8.6,��
2019/04/13,15:40,0.756,1.115,0.762,1.405,1.029,0.436,0.765,0.727,��쓌,9.1,��
2019/04/13,15:50,0.756,1.114,0.766,1.407,1.027,0.436,0.767,0.727,��쓌,8.3,��
2019/04/13,16:00,0.756,1.113,0.763,1.403,1.027,0.436,0.767,0.727,��쓌,9.7,��
2019/04/13,16:10,0.754,1.115,0.765,1.405,1.028,0.438,0.769,0.727,��쓌,9.7,��
2019/04/13,16:20,0.757,1.115,0.765,1.406,1.026,0.436,0.768,0.728,��쓌,9.2,��
2019/04/13,16:30,0.759,1.115,0.765,1.405,1.028,0.435,0.767,0.729,��쓌,8.4,��
2019/04/13,16:40,0.757,1.117,0.764,1.405,1.027,0.437,0.769,0.727,��쓌,9.0,��
2019/04/13,16:50,0.758,1.117,0.765,1.406,1.028,0.436,0.768,0.730,��,8.5,��
2019/04/13,17:00,0.757,1.118,0.764,1.405,1.026,0.436,0.767,0.730,��쓌,8.4,��
2019/04/13,17:10,0.757,1.114,0.764,1.404,1.029,0.437,0.767,0.729,��쓌,9.4,��
2019/04/13,17:20,0.757,1.115,0.766,1.405,1.029,0.437,0.769,0.731,��,9.4,��
2019/04/13,17:30,0.759,1.114,0.764,1.406,1.028,0.436,0.770,0.732,��,8.4,��
2019/04/13,17:40,0.758,1.116,0.764,1.406,1.026,0.437,0.767,0.731,��,8.4,��
2019/04/13,17:50,0.761,1.115,0.765,1.406,1.029,0.436,0.767,0.730,��,8.4,��
2019/04/13,18:00,0.759,1.116,0.767,1.409,1.028,0.436,0.768,0.731,��,7.7,��
2019/04/13,18:10,0.760,1.115,0.766,1.411,1.032,0.436,0.768,0.730,��,6.5,��
2019/04/13,18:20,0.759,1.116,0.765,1.407,1.029,0.437,0.769,0.729,��,7.0,��
2019/04/13,18:30,0.760,1.117,0.766,1.410,1.030,0.436,0.770,0.730,��,7.5,��
2019/04/13,18:40,0.758,1.116,0.765,1.409,1.034,0.436,0.770,0.729,��,7.4,��
2019/04/13,18:50,0.759,1.115,0.766,1.410,1.030,0.436,0.771,0.731,��,7.3,��
2019/04/13,19:00,0.760,1.117,0.766,1.410,1.029,0.436,0.771,0.730,��,7.0,��
2019/04/13,19:10,0.760,1.117,0.766,1.407,1.031,0.436,0.771,0.730,��쓌,6.4,��
2019/04/13,19:20,0.759,1.114,0.764,1.408,1.029,0.435,0.772,0.732,��,6.1,��
2019/04/13,19:30,0.759,1.113,0.766,1.410,1.029,0.436,0.770,0.728,��,5.4,��
2019/04/13,19:40,0.760,1.116,0.764,1.408,1.030,0.436,0.769,0.731,��,5.5,��
2019/04/13,19:50,0.759,1.114,0.765,1.409,1.031,0.436,0.771,0.730,��,5.6,��
2019/04/13,20:00,0.760,1.117,0.765,1.409,1.029,0.437,0.769,0.729,��,6.1,��
2019/04/13,20:10,0.759,1.114,0.764,1.407,1.027,0.435,0.769,0.730,��,5.9,��
2019/04/13,20:20,0.760,1.114,0.765,1.409,1.029,0.435,0.769,0.729,��,5.9,��
2019/04/13,20:30,0.757,1.116,0.764,1.408,1.030,0.435,0.771,0.731,��,6.9,��
2019/04/13,20:40,0.759,1.117,0.765,1.410,1.030,0.436,0.770,0.729,��쓌,6.2,��
2019/04/13,20:50,0.759,1.115,0.766,1.410,1.028,0.435,0.769,0.729,��,6.3,��
2019/04/13,21:00,0.761,1.115,0.764,1.408,1.028,0.435,0.770,0.729,��쓌,6.9,��
2019/04/13,21:10,0.758,1.116,0.766,1.408,1.028,0.435,0.769,0.728,��,6.5,��
2019/04/13,21:20,0.760,1.117,0.767,1.409,1.030,0.435,0.768,0.729,��,6.1,��
2019/04/13,21:30,0.760,1.115,0.767,1.410,1.026,0.435,0.770,0.727,��,6.8,��
2019/04/13,21:40,0.760,1.114,0.765,1.410,1.028,0.436,0.769,0.729,��,6.2,��
2019/04/13,21:50,0.760,1.115,0.765,1.409,1.030,0.436,0.769,0.731,��,5.6,��
2019/04/13,22:00,0.759,1.115,0.765,1.408,1.030,0.435,0.769,0.729,��쐼,6.3,��
2019/04/13,22:10,0.760,1.112,0.763,1.409,1.029,0.435,0.769,0.731,��,6.7,��
2019/04/13,22:20,0.759,1.114,0.766,1.408,1.030,0.435,0.768,0.729,��,6.6,��
2019/04/13,22:30,0.759,1.114,0.764,1.409,1.031,0.436,0.768,0.730,��,6.5,��
2019/04/13,22:40,0.759,1.111,0.764,1.408,1.029,0.435,0.768,0.730,��,6.5,��
2019/04/13,22:50,0.760,1.112,0.764,1.408,1.029,0.434,0.767,0.729,��,7.0,��
2019/04/13,23:00,0.758,1.117,0.764,1.410,1.028,0.433,0.768,0.731,��쐼,6.5,��
2019/04/13,23:10,0.758,1.113,0.764,1.409,1.031,0.435,0.769,0.730,��,4.8,��
2019/04/13,23:20,0.759,1.113,0.764,1.409,1.027,0.435,0.770,0.730,��,5.1,��
2019/04/13,23:30,0.761,1.111,0.765,1.409,1.029,0.435,0.768,0.731,��,6.1,��
2019/04/13,23:40,0.759,1.112,0.765,1.407,1.030,0.436,0.767,0.729,��,5.4,��
2019/04/13,23:50,0.759,1.112,0.767,1.409,1.030,0.434,0.770,0.727,��,6.8,��
